Wind_Speed
52 52 51 51 52 52 52 53 54 53 53 52 52 51 51 51 51 51 50 49 49 48 48 49 50 50 50 50 50 50 49 49 50 50 49 49 48 48
51 51 51 51 51 51 51 52 53 53 52 51 52 52 51 51 50 50 50 49 48 48 47 47 48 48 48 49 49 48 48 48 48 48 47 46 46 46
49 49 50 50 50 50 51 52 52 52 51 50 51 50 50 50 50 49 49 48 48 47 47 47 47 47 47 48 47 47 47 47 46 45 45 44 44 44
48 48 48 48 48 49 49 50 50 50 51 50 49 49 49 49 49 48 49 49 47 46 46 46 46 46 46 46 45 44 43 43 43 43 43 42 42 42
47 47 47 48 48 47 47 48 48 48 48 49 48 48 48 49 48 47 47 47 47 46 45 45 45 45 44 42 41 41 41 41 41 41 41 40 40 40
46 47 47 47 47 46 47 47 47 47 47 48 48 48 47 48 47 46 45 45 44 44 44 43 43 42 42 40 39 39 38 38 38 39 38 38 38 38
46 46 46 46 45 45 45 45 46 45 45 46 46 46 46 46 45 44 43 42 41 41 40 40 40 40 40 39 37 37 37 36 36 36 36 36 36 35
41 42 42 42 43 43 43 43 44 43 43 43 43 44 44 44 43 42 41 40 39 38 38 37 36 36 37 36 36 35 35 35 35 35 35 35 35 35
38 39 40 40 40 40 41 41 41 41 41 41 41 40 40 40 39 39 39 38 36 35 35 35 35 35 34 34 35 35 34 34 34 33 34 34 34 34
36 37 37 38 38 38 39 39 38 38 38 38 37 37 36 35 35 36 35 34 33 33 34 33 33 33 33 32 32 33 33 33 32 32 33 33 33 33
34 34 35 35 36 36 36 36 35 35 35 34 34 34 33 33 33 32 30 31 31 31 31 31 31 31 32 31 30 31 31 30 30 30 30 30 30 30
33 33 33 33 34 34 34 34 34 33 32 32 32 31 31 30 30 29 29 29 28 28 28 29 29 29 29 30 29 29 29 28 29 28 28 28 28 29
31 31 32 32 32 32 32 31 31 31 30 30 29 29 28 28 28 27 27 27 27 27 26 27 27 27 27 27 28 28 27 27 27 27 27 27 26 27
29 29 29 29 29 29 29 28 28 27 27 26 26 26 26 25 25 25 25 26 26 25 25 25 25 25 25 25 25 25 25 25 25 25 25 25 24 23
27 28 28 28 27 27 26 26 26 25 24 24 24 24 23 23 22 23 23 23 23 23 23 23 23 23 23 23 23 23 24 24 23 22 21 21 21 20
25 25 26 26 26 25 24 24 24 23 23 23 22 21 21 21 21 21 21 22 22 21 21 22 21 21 20 20 21 21 21 20 20 20 20 19 19 19
23 23 23 23 23 22 21 21 20 20 21 21 20 19 19 19 19 19 18 18 18 18 19 19 19 19 18 18 18 18 18 18 18 18 17 17 17 17
19 19 19 19 18 19 18 17 17 17 17 18 17 17 17 17 17 16 16 16 17 17 18 18 19 18 18 17 16 16 16 16 16 15 15 15 15 14
15 15 15 16 16 16 16 16 16 15 15 16 16 15 15 15 15 15 15 16 17 17 17 18 17 17 16 15 14 14 14 14 14 13 13 13 13 12
12 13 13 13 14 14 14 15 15 14 13 14 14 14 14 14 13 14 15 15 16 15 15 15 15 15 14 14 13 13 12 12 11 11 11 11 11 11
11 12 11 12 12 12 13 14 14 13 13 12 12 13 13 13 13 13 13 14 14 14 14 13 13 13 13 13 12 11 11 11 10 10 10 10 10 10
11 11 11 11 12 12 12 12 12 11 12 12 12 12 12 12 12 12 12 12 12 12 12 12 12 12 12 11 11 10 9 9 9 9 8 8 8 8
10 10 10 10 10 10 11 11 11 10 10 10 10 10 11 11 11 11 11 11 11 12 11 11 11 11 10 10 9 9 8 8 8 8 8 8 8 8
Wind_Direction
267 267 267 267 268 268 269 270 270 269 269 270 271 271 272 272 272 273 274 273 273 273 274 273 272 272 272 271 271 272 273 274 274 273 273 274 273 272
267 266 267 268 268 268 269 269 270 271 271 271 271 271 271 272 273 273 273 273 273 273 275 274 273 272 272 271 272 273 273 273 274 273 273 273 274 273
266 267 269 269 269 268 269 269 270 270 271 272 272 272 272 273 274 273 273 273 273 274 274 274 273 272 272 272 272 273 273 273 273 272 271 272 274 274
268 269 269 269 270 269 270 270 270 270 271 272 273 272 272 272 273 273 274 274 274 273 273 273 272 271 272 272 272 272 272 272 272 272 271 271 271 272
270 270 270 270 270 270 271 271 270 270 271 272 272 272 272 272 273 274 274 274 273 272 272 273 272 271 271 272 272 272 272 272 272 272 271 271 272 273
271 271 270 270 270 270 271 271 271 271 271 271 271 271 272 273 273 274 273 274 273 272 273 272 271 270 270 271 272 273 273 273 273 273 272 272 274 275
270 270 270 270 269 269 270 271 271 271 272 272 271 271 271 272 272 273 273 274 273 273 273 272 272 271 270 271 272 273 273 274 274 273 273 273 275 276
270 269 269 269 269 270 270 270 271 271 271 271 271 271 271 271 271 271 271 272 271 270 270 271 271 271 269 270 272 273 273 274 274 273 273 273 274 274
269 268 268 268 268 269 269 270 271 272 272 271 271 272 272 270 270 270 270 270 270 270 269 270 271 270 269 269 271 271 272 273 273 273 273 273 275 276
269 268 268 268 268 269 270 270 271 271 271 272 272 271 270 270 269 269 270 269 269 270 270 271 270 270 268 267 268 270 271 271 271 272 273 274 275 275
270 269 269 269 268 269 269 270 271 271 270 271 272 272 271 270 270 270 269 269 270 270 269 269 270 269 268 267 267 268 269 269 270 272 273 274 275 275
270 269 270 271 271 269 269 270 270 270 270 270 270 270 271 271 269 268 268 269 269 269 269 270 269 268 267 267 267 267 268 271 273 273 274 276 277 277
270 270 271 272 271 270 270 270 269 268 268 268 268 268 269 268 267 267 268 268 268 270 270 269 268 268 267 267 268 269 269 270 272 273 275 277 278 278
271 270 271 271 270 270 270 269 267 266 267 266 267 267 266 265 264 265 266 267 267 267 267 267 268 268 269 269 269 268 270 271 272 273 275 278 279 279
273 272 271 270 270 270 269 268 266 265 266 265 265 264 263 264 263 265 264 264 266 266 268 269 270 271 270 269 268 269 270 271 272 275 277 278 279 279
274 273 271 269 269 268 268 267 265 262 263 263 263 262 262 263 263 263 260 261 263 265 267 268 268 270 270 269 269 269 270 270 270 273 276 278 279 279
273 272 270 267 265 264 266 265 263 261 260 262 262 260 259 259 260 260 260 259 261 263 264 264 267 270 270 269 269 269 269 269 269 271 274 276 276 274
275 272 269 266 263 263 262 261 260 261 263 262 260 257 256 257 258 259 259 261 263 264 264 265 267 269 270 269 270 271 270 269 270 270 273 274 271 269
277 272 268 263 261 259 259 260 261 263 264 259 255 254 254 255 257 259 262 262 263 266 266 266 267 268 265 264 264 267 267 266 265 265 265 268 269 271
280 276 272 267 263 259 259 260 259 259 261 254 251 251 251 254 257 260 263 263 262 264 265 264 265 264 260 261 263 266 265 263 262 261 263 269 274 277
281 279 273 268 264 260 259 260 257 257 259 256 254 251 251 253 258 260 261 262 261 260 260 262 262 261 259 258 260 263 263 262 261 258 263 268 273 276
279 278 273 269 266 263 261 259 258 259 258 255 253 252 254 255 257 260 261 261 257 255 257 259 260 259 258 255 255 259 262 260 257 258 262 270 273 273
279 275 272 270 267 265 261 257 256 255 254 252 252 254 253 254 257 259 259 256 253 254 256 258 258 256 255 252 251 254 254 252 252 255 262 271 273 267
Height
5626 5626 5626 5626 5626 5626 5625 5625 5625 5626 5626 5625 5624 5623 5621 5620 5619 5617 5616 5615 5613 5612 5611 5610 5609 5608 5607 5607 5606 5605 5604 5603 5602 5600 5599 5598 5598 5597
5612 5612 5612 5612 5612 5612 5611 5611 5611 5611 5612 5612 5610 5609 5608 5607 5605 5604 5603 5601 5600 5599 5598 5597 5596 5595 5594 5593 5593 5592 5591 5590 5588 5587 5586 5586 5585 5584
5599 5599 5599 5598 5598 5598 5598 5598 5597 5597 5597 5598 5597 5596 5594 5593 5592 5591 5589 5588 5587 5586 5585 5584 5583 5582 5581 5581 5580 5579 5578 5577 5575 5574 5573 5573 5573 5572
5586 5585 5585 5585 5585 5585 5584 5584 5584 5583 5583 5584 5584 5582 5581 5580 5579 5578 5576 5575 5574 5573 5572 5571 5570 5570 5569 5568 5567 5566 5566 5564 5563 5562 5562 5562 5561 5559
5572 5572 5572 5572 5572 5572 5571 5571 5571 5570 5570 5570 5570 5569 5568 5567 5566 5564 5563 5562 5561 5560 5559 5559 5558 5557 5557 5556 5556 5555 5554 5553 5552 5551 5550 5550 5549 5549
5559 5559 5559 5559 5559 5558 5558 5558 5558 5557 5557 5556 5556 5556 5555 5554 5552 5551 5550 5549 5548 5547 5547 5546 5546 5546 5546 5546 5545 5545 5544 5542 5541 5541 5540 5539 5539 5539
5546 5546 5546 5546 5546 5546 5546 5546 5545 5545 5544 5544 5543 5543 5542 5541 5540 5539 5538 5537 5536 5536 5535 5535 5535 5535 5535 5535 5535 5534 5534 5533 5532 5531 5530 5530 5529 5528
5534 5534 5534 5534 5534 5534 5534 5533 5533 5533 5532 5532 5532 5531 5531 5529 5528 5527 5526 5526 5526 5527 5525 5525 5524 5525 5525 5525 5525 5525 5524 5523 5522 5522 5521 5520 5520 5519
5523 5523 5523 5523 5523 5523 5522 5521 5521 5520 5520 5520 5520 5519 5519 5518 5518 5517 5516 5515 5516 5516 5515 5515 5515 5515 5515 5515 5515 5515 5515 5515 5514 5513 5512 5512 5511 5510
5512 5512 5512 5512 5512 5512 5511 5510 5510 5509 5509 5509 5509 5509 5508 5507 5507 5507 5506 5506 5506 5506 5505 5506 5506 5506 5505 5505 5506 5506 5506 5506 5505 5505 5504 5503 5503 5502
5502 5502 5502 5502 5501 5501 5501 5500 5500 5499 5498 5498 5498 5498 5498 5498 5497 5497 5497 5497 5497 5497 5496 5497 5497 5496 5496 5496 5497 5497 5497 5497 5497 5496 5496 5495 5494 5493
5492 5492 5492 5491 5491 5490 5490 5490 5490 5489 5488 5488 5488 5488 5488 5489 5488 5488 5488 5488 5488 5488 5488 5488 5488 5488 5488 5488 5488 5489 5489 5489 5489 5488 5488 5487 5486 5485
5482 5482 5482 5481 5481 5481 5480 5480 5480 5480 5479 5479 5479 5479 5480 5480 5480 5479 5479 5480 5480 5480 5481 5480 5480 5480 5480 5481 5481 5481 5481 5481 5481 5481 5480 5480 5478 5477
5473 5473 5473 5472 5472 5472 5471 5471 5471 5471 5471 5471 5471 5471 5471 5472 5472 5472 5472 5472 5472 5473 5473 5473 5473 5473 5473 5474 5474 5474 5474 5474 5474 5474 5473 5472 5471 5470
5465 5464 5464 5463 5463 5463 5463 5463 5463 5463 5463 5463 5464 5464 5464 5464 5465 5465 5465 5465 5465 5466 5466 5466 5466 5466 5466 5467 5467 5468 5468 5467 5467 5467 5467 5466 5466 5465
5456 5456 5455 5455 5455 5455 5455 5455 5455 5455 5456 5456 5457 5457 5457 5458 5458 5458 5459 5459 5459 5459 5459 5459 5459 5460 5460 5461 5461 5461 5461 5461 5461 5462 5461 5461 5460 5459
5449 5448 5448 5447 5447 5447 5447 5447 5448 5448 5449 5449 5450 5451 5451 5452 5453 5452 5453 5453 5453 5454 5454 5454 5454 5454 5454 5455 5455 5456 5456 5456 5456 5457 5456 5456 5456 5455
5442 5442 5441 5441 5441 5441 5442 5442 5442 5442 5442 5443 5444 5445 5446 5447 5447 5447 5447 5448 5448 5448 5449 5449 5449 5449 5450 5450 5451 5451 5452 5452 5452 5452 5452 5452 5452 5451
5437 5436 5436 5436 5436 5437 5437 5437 5437 5437 5437 5438 5438 5439 5440 5441 5441 5442 5443 5443 5443 5444 5444 5444 5444 5445 5445 5446 5447 5447 5448 5448 5448 5448 5448 5448 5448 5448
5433 5432 5432 5431 5431 5432 5432 5432 5432 5432 5433 5433 5434 5435 5435 5436 5437 5438 5438 5438 5439 5439 5439 5440 5440 5441 5441 5442 5443 5443 5444 5444 5444 5444 5445 5445 5444 5444
5429 5428 5428 5427 5427 5427 5427 5427 5428 5428 5429 5430 5430 5431 5431 5432 5433 5433 5434 5434 5434 5435 5436 5436 5437 5437 5438 5439 5439 5440 5440 5441 5441 5441 5441 5442 5441 5441
5425 5425 5424 5424 5423 5423 5423 5424 5424 5425 5425 5426 5426 5427 5427 5428 5429 5429 5430 5430 5431 5431 5432 5433 5433 5434 5435 5435 5436 5437 5437 5438 5438 5438 5439 5439 5439 5438
5422 5421 5421 5420 5420 5420 5420 5420 5421 5421 5422 5422 5423 5423 5423 5424 5425 5426 5426 5427 5427 5428 5429 5430 5430 5431 5431 5432 5433 5434 5435 5436 5436 5436 5437 5436 5436 5436